Location: Unspecified
(0.0000°N, 0.0000°E)
Time: 23:56:50
(UTC+00:00)

Transit 4A - Pass Details

Date: 13 December 2018
Orbit: 868 x 977 km, 66.8° (Epoch: 18 January)

Event Time Altitude Azimuth Distance (km) Brightness Sun altitude
Rises 03:22:31 0° 229° (SW) 3,489 - -34.4°
Reaches altitude 10° 03:25:44 10° 245° (WSW) 2,532 - -33.7°
Maximum altitude 03:29:46 19° 290° (WNW) 1,937 - -32.8°
Drops below altitude 10° 03:33:46 10° 334° (NNW) 2,502 - -31.9°
Sets 03:36:57 0° 352° (N) 3,434 - -31.2°
